CW1575 Weather Reports


Display with metric or nautical units.
time (UTC)temp
F
wind
direction
speed
MPH
gust
MPH
rain 1hr
in
rain 24hr
in
rain mn
in
humidity
%
barometer
mb
20240623110005 56 334 0.0 1.0 0.00 0.00 0.00 62 1006.4
20240623105505 57 246 0.0 0.0 0.00 0.00 0.00 62 1006.4
20240623105005 57 237 0.0 2.0 0.00 0.00 0.00 62 1006.3
20240623104505 57 205 0.0 0.0 0.00 0.00 0.00 63 1006.2
20240623104005 57 258 0.0 0.0 0.00 0.00 0.00 63 1006.1
20240623103505 57 205 0.0 0.0 0.00 0.00 0.00 63 1006.1
20240623103005 57 314 0.0 0.0 0.00 0.00 0.00 64 1006.1
20240623102505 57 258 0.0 0.0 0.00 0.00 0.00 65 1006.1
20240623102006 58 358 0.0 0.0 0.00 0.00 0.00 65 1006.1
20240623101504 58 0 0.0 0.0 0.00 0.00 0.00 65 1006.0
20240623100505 58 339 0.0 0.0 0.00 0.00 0.00 65 1006.1
20240623095005 59 206 0.0 0.0 0.00 0.00 0.00 64 1006.1
20240623094505 59 206 0.0 0.0 0.00 0.00 0.00 64 1006.2
20240623094006 59 206 0.0 0.0 0.00 0.00 0.00 63 1006.2
20240623093504 59 206 0.0 0.0 0.00 0.00 0.00 63 1006.2
20240623093005 59 206 0.0 0.0 0.00 0.00 0.00 63 1006.1
20240623092505 59 206 0.0 0.0 0.00 0.00 0.00 63 1006.2
20240623092006 60 206 0.0 0.0 0.00 0.00 0.00 62 1006.2
20240623090505 60 206 0.0 1.0 0.00 0.00 0.00 62 1006.3
20240623090005 60 206 0.0 0.0 0.00 0.00 0.00 62 1006.3
20240623085504 60 206 0.0 0.0 0.00 0.00 0.00 62 1006.3
20240623085005 60 206 0.0 0.0 0.00 0.00 0.00 61 1006.4
20240623084505 61 206 0.0 1.0 0.00 0.00 0.00 61 1006.4
20240623084005 61 206 1.0 2.0 0.00 0.00 0.00 62 1006.3
20240623083504 61 206 0.0 1.0 0.00 0.00 0.00 62 1006.4
20240623083005 61 206 0.0 0.0 0.00 0.00 0.00 62 1006.3
20240623082504 61 206 0.0 0.0 0.00 0.00 0.00 61 1006.3
20240623082005 62 206 0.0 0.0 0.00 0.00 0.00 61 1006.2
20240623081505 62 206 0.0 0.0 0.00 0.00 0.00 61 1006.3
20240623081005 62 206 0.0 1.0 0.00 0.00 0.00 61 1006.4
20240623080505 62 206 1.0 1.0 0.00 0.00 0.00 61 1006.4
20240623075504 62 206 0.0 0.0 0.00 0.00 0.00 60 1006.3
20240623075005 63 206 0.0 0.0 0.00 0.00 0.00 60 1006.4
20240623074505 63 206 0.0 1.0 0.00 0.00 0.00 60 1006.5
20240623074005 63 206 0.0 0.0 0.00 0.00 0.00 60 1006.5
20240623073505 63 206 0.0 1.0 0.00 0.00 0.00 60 1006.5
20240623073005 63 206 0.0 1.0 0.00 0.00 0.00 59 1006.5
20240623072504 63 206 1.0 3.0 0.00 0.00 0.00 58 1006.6
20240623071506 63 194 0.0 3.0 0.00 0.00 0.00 57 1006.6
20240623071005 64 198 1.0 2.0 0.00 0.00 0.00 57 1006.7
20240623070504 64 183 0.0 1.0 0.00 0.00 0.00 56 1006.6
20240623070006 64 183 1.0 3.0 0.00 0.00 0.00 56 1006.8
20240623065504 64 148 0.0 2.0 0.00 0.00 0.00 56 1006.8
20240623065004 64 148 0.0 1.0 0.00 0.00 0.00 56 1006.9
20240623064504 64 148 0.0 1.0 0.00 0.00 0.00 55 1006.9
20240623064005 64 148 0.0 0.0 0.00 0.00 0.00 55 1006.9
20240623063505 65 148 0.0 0.0 0.00 0.00 0.00 54 1006.9
20240623063005 65 148 0.0 0.0 0.00 0.00 0.00 54 1007.0
20240623062506 65 148 0.0 1.0 0.00 0.00 0.00 53 1007.0
20240623062004 65 148 1.0 3.0 0.00 0.00 0.00 54 1007.0
20240623061505 65 169 2.0 3.0 0.00 0.00 0.00 53 1007.0
20240623061005 65 184 0.0 1.0 0.00 0.00 0.00 50 1007.0
20240623060505 66 184 0.0 1.0 0.00 0.00 0.00 51 1007.0
20240623060004 66 184 0.0 1.0 0.00 0.00 0.00 52 1007.0
20240623055005 66 184 0.0 0.0 0.00 0.00 0.00 51 1006.9
20240623054505 67 184 0.0 0.0 0.00 0.00 0.00 51 1007.0
20240623054004 67 184 0.0 0.0 0.00 0.00 0.00 51 1007.2
20240623053504 67 184 0.0 0.0 0.00 0.00 0.00 51 1007.1
20240623053005 68 184 0.0 0.0 0.00 0.00 0.00 51 1007.2
20240623052505 68 184 0.0 0.0 0.00 0.00 0.00 50 1007.2
20240623052005 68 0 0.0 0.0 0.00 0.00 0.00 49 1007.4
20240623051504 68 0 0.0 0.0 0.00 0.00 0.00 47 1007.4
20240623050504 69 0 0.0 1.0 0.00 0.00 0.00 46 1007.4
20240623050005 69 0 0.0 1.0 0.00 0.00 0.00 45 1007.5
20240623045504 69 0 0.0 1.0 0.00 0.00 0.00 45 1007.6
20240623045004 70 0 0.0 1.0 0.00 0.00 0.00 45 1007.7
20240623044005 70 184 0.0 1.0 0.00 0.00 0.00 43 1007.6
20240623043504 70 184 0.0 1.0 0.00 0.00 0.00 43 1007.6
20240623043004 70 182 0.0 1.0 0.00 0.00 0.00 43 1007.5
20240623042504 70 181 1.0 2.0 0.00 0.00 0.00 43 1007.5
20240623042005 71 173 2.0 6.0 0.00 0.00 0.00 43 1007.4
20240623041505 71 214 1.0 3.0 0.00 0.00 0.00 43 1007.5
20240623041005 71 219 2.0 5.0 0.00 0.00 0.00 42 1007.5
20240623040504 71 341 1.0 3.0 0.00 0.00 0.00 42 1007.5
20240623035504 72 200 2.0 8.0 0.00 0.00 0.00 41 1007.6
20240623034504 72 0 2.0 3.0 0.00 0.00 0.00 41 1007.3
20240623034004 73 0 1.0 2.0 0.00 0.00 0.00 40 1007.3
20240623033005 73 0 0.0 0.0 0.00 0.00 0.00 38 1007.2
20240623032504 74 0 0.0 1.0 0.00 0.00 0.00 37 1007.2
20240623032005 74 0 1.0 1.0 0.00 0.00 0.00 37 1007.2
20240623031504 74 0 0.0 0.0 0.00 0.00 0.00 36 1007.1
20240623031004 74 0 0.0 1.0 0.00 0.00 0.00 37 1007.0
20240623030505 74 0 1.0 2.0 0.00 0.00 0.00 36 1006.9
20240623030005 74 0 0.0 0.0 0.00 0.00 0.00 36 1006.8
20240623025504 74 0 0.0 1.0 0.00 0.00 0.00 35 1006.8
20240623024005 75 0 0.0 2.0 0.00 0.00 0.00 35 1006.9
20240623023504 75 0 1.0 3.0 0.00 0.00 0.00 35 1006.8
20240623023004 75 0 1.0 3.0 0.00 0.00 0.00 34 1006.9
20240623022504 76 0 1.0 3.0 0.00 0.00 0.00 34 1006.9
20240623022005 76 0 1.0 3.0 0.00 0.00 0.00 35 1006.9
20240623021505 76 0 0.0 3.0 0.00 0.00 0.00 34 1006.9
20240623021005 76 0 1.0 3.0 0.00 0.00 0.00 33 1007.0
20240623020504 76 0 3.0 8.0 0.00 0.00 0.00 33 1007.0
20240623020004 77 0 2.0 3.0 0.00 0.00 0.00 33 1007.0
20240623015504 77 0 3.0 6.0 0.00 0.00 0.00 32 1007.0
20240623015004 77 0 3.0 9.0 0.00 0.00 0.00 32 1007.0
20240623014504 78 0 3.0 10.0 0.00 0.00 0.00 32 1007.0
20240623014004 78 0 3.0 6.0 0.00 0.00 0.00 32 1007.0
20240623013505 78 0 2.0 5.0 0.00 0.00 0.00 32 1007.0
20240623012505 78 0 3.0 6.0 0.00 0.00 0.00 31 1006.9
20240623012005 79 0 2.0 8.0 0.00 0.00 0.00 31 1006.9
20240623011505 79 0 2.0 9.0 0.00 0.00 0.00 31 1006.9
20240623011005 79 0 2.0 6.0 0.00 0.00 0.00 31 1006.8
20240623010504 79 0 3.0 5.0 0.00 0.00 0.00 30 1006.8
20240623010004 79 0 3.0 5.0 0.00 0.00 0.00 30 1006.8
20240623005504 80 0 2.0 5.0 0.00 0.00 0.00 31 1006.8
20240623004504 80 0 3.0 6.0 0.00 0.00 0.00 30 1006.7
20240623004004 80 0 5.0 6.0 0.00 0.00 0.00 30 1006.7
20240623003504 80 0 3.0 9.0 0.00 0.00 0.00 29 1006.5
20240623003005 80 0 3.0 5.0 0.00 0.00 0.00 29 1006.5
20240623002504 81 0 6.0 12.0 0.00 0.00 0.00 28 1006.3
20240623002005 81 0 3.0 9.0 0.00 0.00 0.00 29 1006.3
20240623001505 81 0 4.0 12.0 0.00 0.00 0.00 28 1006.2
20240623001005 81 0 2.0 6.0 0.00 0.00 0.00 29 1006.2
20240623000505 82 0 6.0 15.0 0.00 0.00 0.00 28 1006.2
20240623000004 82 0 4.0 10.0 0.00 0.00 0.00 29 1006.0
20240622235504 82 0 6.0 13.0 0.00 0.00 0.00 29 1005.8
20240622235004 82 0 6.0 15.0 0.00 0.00 0.00 29 1005.8
20240622234504 82 0 6.0 14.0 0.00 0.00 0.00 28 1005.7
20240622234004 83 0 5.0 12.0 0.00 0.00 0.00 30 1005.6
20240622233504 83 0 7.0 16.0 0.00 0.00 0.00 28 1005.6
20240622233004 84 0 6.0 15.0 0.00 0.00 0.00 28 1005.6
20240622232004 85 0 4.0 18.0 0.00 0.00 0.00 26 1005.4
20240622231005 85 0 4.0 12.0 0.00 0.00 0.00 25 1005.1
20240622230504 86 0 7.0 12.0 0.00 0.00 0.00 24 1005.1
20240622230004 86 0 4.0 12.0 0.00 0.00 0.00 24 1005.1
20240622225504 87 0 7.0 18.0 0.00 0.00 0.00 23 1005.1
20240622225004 87 0 3.0 13.0 0.00 0.00 0.00 24 1005.0
20240622224005 88 324 8.0 20.0 0.00 0.00 0.00 21 1005.0
20240622223503 89 293 5.0 17.0 0.00 0.00 0.00 21 1004.9
20240622223004 89 328 10.0 18.0 0.00 0.00 0.00 21 1004.7
20240622222004 88 320 6.0 14.0 0.00 0.00 0.00 22 1004.5
20240622221005 89 312 5.0 15.0 0.00 0.00 0.00 22 1004.5
20240622220504 89 343 5.0 8.0 0.00 0.00 0.00 20 1004.4
20240622220004 89 321 2.0 15.0 0.00 0.00 0.00 20 1004.3
20240622215504 90 36 3.0 5.0 0.00 0.00 0.00 23 1004.2
20240622214505 90 348 4.0 9.0 0.00 0.00 0.00 20 1004.3
20240622214005 90 328 6.0 12.0 0.00 0.00 0.00 19 1004.3
20240622213004 90 20 2.0 10.0 0.00 0.00 0.00 19 1004.2
20240622212504 90 329 6.0 10.0 0.00 0.00 0.00 21 1004.2
20240622212004 90 313 3.0 9.0 0.00 0.00 0.00 21 1004.1
20240622211504 90 348 3.0 9.0 0.00 0.00 0.00 19 1004.2
20240622211004 90 323 5.0 10.0 0.00 0.00 0.00 19 1004.2
20240622210503 90 304 5.0 12.0 0.00 0.00 0.00 20 1004.3
20240622205504 89 332 3.0 12.0 0.00 0.00 0.00 20 1004.2
20240622205004 89 325 7.0 12.0 0.00 0.00 0.00 20 1004.3
20240622204503 89 342 3.0 12.0 0.00 0.00 0.00 22 1004.3
20240622204005 88 236 2.0 6.0 0.00 0.00 0.00 22 1004.5
20240622203504 88 236 3.0 6.0 0.00 0.00 0.00 22 1004.6
20240622203004 88 230 3.0 8.0 0.00 0.00 0.00 21 1004.7
20240622202504 88 262 2.0 8.0 0.00 0.00 0.00 20 1004.7
20240622202004 89 313 2.0 12.0 0.00 0.00 0.00 20 1004.8
20240622201505 89 281 5.0 12.0 0.00 0.00 0.00 20 1004.8
20240622201005 89 300 3.0 12.0 0.00 0.00 0.00 21 1004.9
20240622200505 89 328 4.0 9.0 0.00 0.00 0.00 21 1005.0
20240622200004 89 308 4.0 9.0 0.00 0.00 0.00 21 1005.1
20240622195504 89 10 5.0 10.0 0.00 0.00 0.00 20 1005.1
20240622194004 90 286 5.0 17.0 0.00 0.00 0.00 19 1005.3
20240622193504 91 321 7.0 17.0 0.00 0.00 0.00 19 1005.3
20240622193004 92 339 2.0 13.0 0.00 0.00 0.00 20 1005.4
20240622192504 92 330 7.0 16.0 0.00 0.00 0.00 20 1005.5
20240622192005 91 331 4.0 10.0 0.00 0.00 0.00 21 1005.6
20240622191504 91 0 2.0 8.0 0.00 0.00 0.00 25 1005.8
20240622191004 91 310 2.0 5.0 0.00 0.00 0.00 23 1005.9
20240622190504 90 221 1.0 3.0 0.00 0.00 0.00 23 1005.9
20240622190004 91 227 3.0 7.0 0.00 0.00 0.00 23 1005.9
20240622185004 91 253 3.0 8.0 0.00 0.00 0.00 23 1005.9
20240622184504 91 312 5.0 10.0 0.00 0.00 0.00 22 1006.0
20240622184003 91 314 4.0 12.0 0.00 0.00 0.00 23 1005.9
20240622183504 90 66 3.0 12.0 0.00 0.00 0.00 26 1005.8
20240622183004 90 270 3.0 8.0 0.00 0.00 0.00 23 1006.0
20240622182003 89 28 3.0 10.0 0.00 0.00 0.00 24 1006.2
20240622181504 89 30 5.0 12.0 0.00 0.00 0.00 23 1006.3
20240622181004 89 41 2.0 7.0 0.00 0.00 0.00 26 1006.3
20240622180504 89 124 3.0 8.0 0.00 0.00 0.00 24 1006.4
20240622175504 88 166 1.0 3.0 0.00 0.00 0.00 24 1006.6
20240622174503 88 36 2.0 9.0 0.00 0.00 0.00 27 1006.7
20240622173504 87 37 2.0 9.0 0.00 0.00 0.00 27 1006.8
20240622173004 87 329 3.0 10.0 0.00 0.00 0.00 27 1006.8
20240622172504 87 60 2.0 3.0 0.00 0.00 0.00 28 1006.8
20240622172004 87 70 1.0 3.0 0.00 0.00 0.00 31 1006.8
20240622171503 87 111 0.0 3.0 0.00 0.00 0.00 30 1006.8
20240622171004 87 114 2.0 7.0 0.00 0.00 0.00 30 1006.8
20240622170504 86 236 2.0 3.0 0.00 0.00 0.00 32 1006.7
20240622165503 85 6 2.0 3.0 0.00 0.00 0.00 34 1006.7
20240622164504 84 290 1.0 2.0 0.00 0.01 0.00 35 1006.7
20240622164004 84 17 1.0 2.0 0.00 0.01 0.00 35 1006.8
20240622163504 83 313 1.0 2.0 0.00 0.01 0.00 35 1006.8
20240622163004 83 357 1.0 3.0 0.00 0.01 0.00 33 1006.9
20240622162504 82 34 2.0 3.0 0.00 0.01 0.00 36 1006.9
20240622162004 82 11 3.0 3.0 0.00 0.01 0.00 36 1007.0
20240622161504 81 0 1.0 3.0 0.00 0.01 0.00 39 1007.0
20240622161004 81 174 2.0 3.0 0.00 0.01 0.00 39 1007.2
20240622160003 80 121 2.0 3.0 0.00 0.01 0.00 39 1007.4
20240622155504 79 51 2.0 3.0 0.00 0.01 0.00 42 1007.4
20240622155005 78 150 1.0 3.0 0.00 0.01 0.00 41 1007.4
20240622154504 78 157 0.0 3.0 0.00 0.01 0.00 40 1007.4
20240622154004 77 144 1.0 3.0 0.00 0.01 0.00 45 1007.5
20240622153504 76 143 1.0 3.0 0.00 0.01 0.00 47 1007.5
20240622153004 75 0 1.0 3.0 0.00 0.01 0.00 48 1007.5
20240622152504 74 0 0.0 2.0 0.00 0.01 0.00 49 1007.6
20240622152004 73 0 1.0 3.0 0.00 0.01 0.00 51 1007.6
20240622151504 72 0 1.0 3.0 0.00 0.01 0.00 52 1007.7
20240622151004 71 0 2.0 3.0 0.00 0.01 0.00 53 1007.8
20240622150004 68 0 1.0 3.0 0.00 0.01 0.00 58 1007.8
20240622145504 67 0 1.0 3.0 0.00 0.01 0.00 60 1008.0
20240622144503 65 0 0.0 3.0 0.00 0.01 0.00 63 1007.9
20240622143503 64 17 1.0 3.0 0.00 0.01 0.00 65 1007.9
20240622143004 63 130 2.0 3.0 0.00 0.01 0.00 65 1007.9
20240622142504 63 95 1.0 2.0 0.00 0.01 0.00 65 1007.8
20240622142003 62 153 1.0 3.0 0.00 0.01 0.00 67 1007.8
20240622141004 61 126 1.0 2.0 0.00 0.01 0.00 70 1007.8
20240622140503 61 131 1.0 2.0 0.00 0.01 0.00 70 1007.8
20240622140004 60 118 1.0 3.0 0.00 0.01 0.00 69 1007.7
20240622135504 60 153 0.0 2.0 0.00 0.01 0.00 67 1007.8
20240622135004 59 33 2.0 3.0 0.00 0.01 0.00 67 1007.7
20240622134503 59 109 0.0 3.0 0.00 0.01 0.00 66 1007.8
20240622134004 59 114 0.0 3.0 0.00 0.01 0.00 67 1007.6
20240622133503 58 101 1.0 3.0 0.00 0.01 0.00 67 1007.7
20240622133004 58 101 2.0 6.0 0.00 0.01 0.00 68 1007.4
20240622132503 57 110 0.0 2.0 0.00 0.01 0.00 70 1007.5
20240622132004 57 109 3.0 3.0 0.00 0.01 0.00 72 1007.3
20240622131504 56 94 1.0 2.0 0.00 0.01 0.00 73 1007.5
20240622131004 56 103 2.0 3.0 0.00 0.01 0.00 74 1007.3
20240622130503 55 290 0.0 2.0 0.00 0.01 0.00 75 1007.4
20240622130003 55 290 1.0 2.0 0.00 0.01 0.00 76 1007.4
20240622125504 55 290 0.0 1.0 0.00 0.01 0.00 76 1007.4
20240622125004 55 290 1.0 2.0 0.00 0.01 0.00 77 1007.3
20240622124503 55 303 1.0 2.0 0.00 0.01 0.00 78 1007.2
20240622124004 55 325 2.0 3.0 0.00 0.01 0.00 78 1007.1
20240622123504 55 335 1.0 2.0 0.00 0.01 0.00 78 1007.1
20240622123004 54 5 0.0 1.0 0.00 0.01 0.00 79 1007.1
20240622122504 54 5 0.0 2.0 0.00 0.01 0.00 79 1007.2
20240622122004 54 5 1.0 2.0 0.00 0.01 0.00 80 1007.1
20240622121004 55 5 0.0 2.0 0.00 0.01 0.00 81 1006.9
20240622120505 55 5 0.0 2.0 0.00 0.01 0.00 81 1006.9
20240622120005 55 5 0.0 0.0 0.00 0.01 0.00 81 1006.8
20240622115004 55 5 0.0 1.0 0.00 0.01 0.00 80 1006.8
20240622114005 55 5 0.0 1.0 0.00 0.01 0.00 79 1006.8
20240622112505 55 5 0.0 0.0 0.00 0.01 0.00 78 1006.6
20240622112005 55 5 0.0 0.0 0.00 0.01 0.00 78 1006.6
20240622111504 56 5 0.0 0.0 0.00 0.01 0.00 77 1006.5
20240622111005 56 5 0.0 0.0 0.00 0.01 0.00 77 1006.4
20240622110504 56 5 0.0 3.0 0.00 0.01 0.00 77 1006.4